﻿_id,Startzeitpunkt,Endezeitpunkt,RUS.W.O.S3.LF,RUS.W.O.S3.O2,RUS.W.O.S3.PH,RUS.W.O.S3.TE
1,2018-01-01T00:00:00,2018-01-01T00:15:00,407.9,12.65,8.02,6.32
2,2018-01-01T00:15:00,2018-01-01T00:30:00,407.5,12.65,8.02,6.32
3,2018-01-01T00:30:00,2018-01-01T00:45:00,407.8,12.65,8.02,6.32
4,2018-01-01T00:45:00,2018-01-01T01:00:00,407.7,12.67,8.02,6.33
5,2018-01-01T01:00:00,2018-01-01T01:15:00,407.9,12.66,8.02,6.33
6,2018-01-01T01:15:00,2018-01-01T01:30:00,408,12.66,8.02,6.34
7,2018-01-01T01:30:00,2018-01-01T01:45:00,406.9,12.66,8.02,6.34
8,2018-01-01T01:45:00,2018-01-01T02:00:00,407.3,12.68,8.02,6.34
9,2018-01-01T02:00:00,2018-01-01T02:15:00,406.2,12.68,8.03,6.34
10,2018-01-01T02:15:00,2018-01-01T02:30:00,405.6,12.69,8.03,6.34
11,2018-01-01T02:30:00,2018-01-01T02:45:00,404.8,12.7,8.03,6.33
12,2018-01-01T02:45:00,2018-01-01T03:00:00,403.6,12.7,8.03,6.33
13,2018-01-01T03:00:00,2018-01-01T03:15:00,403.5,12.69,8.03,6.34
14,2018-01-01T03:15:00,2018-01-01T03:30:00,403.4,12.7,8.03,6.34
15,2018-01-01T03:30:00,2018-01-01T03:45:00,403.4,12.71,8.03,6.35
16,2018-01-01T03:45:00,2018-01-01T04:00:00,402.9,12.71,8.03,6.35
17,2018-01-01T04:00:00,2018-01-01T04:15:00,402.5,12.71,8.03,6.35
18,2018-01-01T04:15:00,2018-01-01T04:30:00,402.7,12.72,8.03,6.36
19,2018-01-01T04:30:00,2018-01-01T04:45:00,401.4,12.71,8.03,6.37
20,2018-01-01T04:45:00,2018-01-01T05:00:00,401.3,12.71,8.03,6.37
21,2018-01-01T05:00:00,2018-01-01T05:15:00,401.1,12.71,8.03,6.38
22,2018-01-01T05:15:00,2018-01-01T05:30:00,400.6,12.72,8.04,6.38
23,2018-01-01T05:30:00,2018-01-01T05:45:00,400.9,12.72,8.04,6.39
24,2018-01-01T05:45:00,2018-01-01T06:00:00,400.9,12.71,8.04,6.4
25,2018-01-01T06:00:00,2018-01-01T06:15:00,401.4,12.7,8.04,6.4
26,2018-01-01T06:15:00,2018-01-01T06:30:00,400.2,12.69,8.04,6.4
27,2018-01-01T06:30:00,2018-01-01T06:45:00,400.7,12.68,8.04,6.41
28,2018-01-01T06:45:00,2018-01-01T07:00:00,400.8,12.64,8.04,6.42
29,2018-01-01T07:00:00,2018-01-01T07:15:00,401,12.63,8.04,6.42
30,2018-01-01T07:15:00,2018-01-01T07:30:00,401.5,12.62,8.04,6.42
31,2018-01-01T07:30:00,2018-01-01T07:45:00,400.4,12.61,8.04,6.42
32,2018-01-01T07:45:00,2018-01-01T08:00:00,400.2,12.62,8.04,6.42
33,2018-01-01T08:00:00,2018-01-01T08:15:00,399.2,12.6,8.04,6.41
34,2018-01-01T08:15:00,2018-01-01T08:30:00,398.9,12.6,8.04,6.39
35,2018-01-01T08:30:00,2018-01-01T08:45:00,397.8,12.58,8.04,6.38
36,2018-01-01T08:45:00,2018-01-01T09:00:00,396.7,12.58,8.03,6.37
37,2018-01-01T09:00:00,2018-01-01T09:15:00,396.5,12.57,8.04,6.36
38,2018-01-01T09:15:00,2018-01-01T09:30:00,395,12.55,8.04,6.35
39,2018-01-01T09:30:00,2018-01-01T09:45:00,394.4,12.55,8.03,6.33
40,2018-01-01T09:45:00,2018-01-01T10:00:00,394.6,12.53,8.03,6.32
41,2018-01-01T10:00:00,2018-01-01T10:15:00,393.8,12.56,8.04,6.31
42,2018-01-01T10:15:00,2018-01-01T10:30:00,392.7,12.91,8.04,6.31
43,2018-01-01T10:30:00,2018-01-01T10:45:00,393.2,13.04,8.04,6.3
44,2018-01-01T10:45:00,2018-01-01T11:00:00,394.1,13.07,8.04,6.3
45,2018-01-01T11:00:00,2018-01-01T11:15:00,394.3,13.06,8.04,6.29
46,2018-01-01T11:15:00,2018-01-01T11:30:00,394.3,13.07,8.04,6.29
47,2018-01-01T11:30:00,2018-01-01T11:45:00,394.4,13.05,8.04,6.3
48,2018-01-01T11:45:00,2018-01-01T12:00:00,394.9,13.06,8.04,6.3
49,2018-01-01T12:00:00,2018-01-01T12:15:00,396,13.03,8.04,6.31
50,2018-01-01T12:15:00,2018-01-01T12:30:00,396.3,13.04,8.04,6.32
51,2018-01-01T12:30:00,2018-01-01T12:45:00,397.5,13.02,8.04,6.33
52,2018-01-01T12:45:00,2018-01-01T13:00:00,398.3,13.01,8.04,6.35
53,2018-01-01T13:00:00,2018-01-01T13:15:00,398.6,13,8.05,6.35
54,2018-01-01T13:15:00,2018-01-01T13:30:00,398.7,12.99,8.05,6.36
55,2018-01-01T13:30:00,2018-01-01T13:45:00,399.2,12.79,8.04,6.35
56,2018-01-01T13:45:00,2018-01-01T14:00:00,398.5,12.68,8.04,6.35
57,2018-01-01T14:00:00,2018-01-01T14:15:00,397.8,13.12,8.04,6.35
58,2018-01-01T14:15:00,2018-01-01T14:30:00,397.1,13.13,8.04,6.35
59,2018-01-01T14:30:00,2018-01-01T14:45:00,395.9,13.12,8.04,6.35
60,2018-01-01T14:45:00,2018-01-01T15:00:00,394.5,13.11,8.04,6.35
61,2018-01-01T15:00:00,2018-01-01T15:15:00,393.1,13.1,8.04,6.35
62,2018-01-01T15:15:00,2018-01-01T15:30:00,391.4,13.1,8.03,6.35
63,2018-01-01T15:30:00,2018-01-01T15:45:00,390.2,13.1,8.03,6.35
64,2018-01-01T15:45:00,2018-01-01T16:00:00,389.7,13.07,8.03,6.35
65,2018-01-01T16:00:00,2018-01-01T16:15:00,388.2,13.09,8.03,6.35
66,2018-01-01T16:15:00,2018-01-01T16:30:00,387.1,13.1,8.03,6.35
67,2018-01-01T16:30:00,2018-01-01T16:45:00,386.5,13.14,8.03,6.35
68,2018-01-01T16:45:00,2018-01-01T17:00:00,385.8,13.11,8.03,6.35
69,2018-01-01T17:00:00,2018-01-01T17:15:00,385.1,13.13,8.03,6.35
70,2018-01-01T17:15:00,2018-01-01T17:30:00,383.9,13.11,8.03,6.35
71,2018-01-01T17:30:00,2018-01-01T17:45:00,382.7,12.94,8.03,6.35
72,2018-01-01T17:45:00,2018-01-01T18:00:00,381.7,12.46,8.02,6.34
73,2018-01-01T18:00:00,2018-01-01T18:15:00,380.6,12.27,8.02,6.33
74,2018-01-01T18:15:00,2018-01-01T18:30:00,380.7,12.26,8.02,6.33
75,2018-01-01T18:30:00,2018-01-01T18:45:00,380.4,12.23,8.02,6.33
76,2018-01-01T18:45:00,2018-01-01T19:00:00,378.4,12.22,8.02,6.33
77,2018-01-01T19:00:00,2018-01-01T19:15:00,377.7,12.21,8.02,6.32
78,2018-01-01T19:15:00,2018-01-01T19:30:00,376.4,12.21,8.02,6.32
79,2018-01-01T19:30:00,2018-01-01T19:45:00,375.5,12.19,8.02,6.32
80,2018-01-01T19:45:00,2018-01-01T20:00:00,374.8,12.18,8.02,6.32
81,2018-01-01T20:00:00,2018-01-01T20:15:00,373.5,12.18,8.02,6.31
82,2018-01-01T20:15:00,2018-01-01T20:30:00,373.3,12.18,8.02,6.3
83,2018-01-01T20:30:00,2018-01-01T20:45:00,372.6,12.19,8.02,6.3
84,2018-01-01T20:45:00,2018-01-01T21:00:00,372.2,12.2,8.02,6.29
85,2018-01-01T21:00:00,2018-01-01T21:15:00,370.8,12.21,8.02,6.29
86,2018-01-01T21:15:00,2018-01-01T21:30:00,370.3,12.21,8.02,6.27
87,2018-01-01T21:30:00,2018-01-01T21:45:00,370.3,12.2,8.02,6.28
88,2018-01-01T21:45:00,2018-01-01T22:00:00,363.2,12.18,8.02,6.3
89,2018-01-01T22:00:00,2018-01-01T22:15:00,367.6,12.22,8.02,6.27
90,2018-01-01T22:15:00,2018-01-01T22:30:00,367.5,12.4,8.02,6.26
91,2018-01-01T22:30:00,2018-01-01T22:45:00,366.4,12.97,8.02,6.26
92,2018-01-01T22:45:00,2018-01-01T23:00:00,366.2,13.04,8.02,6.26
93,2018-01-01T23:00:00,2018-01-01T23:15:00,366.4,13.07,8.02,6.25
94,2018-01-01T23:15:00,2018-01-01T23:30:00,366.2,13.09,8.02,6.24
95,2018-01-01T23:30:00,2018-01-01T23:45:00,365.6,13.08,8.02,6.24
96,2018-01-01T23:45:00,2018-02-01T00:00:00,364.8,13.08,8.02,6.23
97,2018-02-01T00:00:00,2018-02-01T00:15:00,365.6,13.06,8.02,6.23
98,2018-02-01T00:15:00,2018-02-01T00:30:00,366,13.09,8.02,6.23
99,2018-02-01T00:30:00,2018-02-01T00:45:00,365.8,13.12,8.02,6.23
100,2018-02-01T00:45:00,2018-02-01T01:00:00,366.4,13.1,8.02,6.22
101,2018-02-01T01:00:00,2018-02-01T01:15:00,366.7,13.09,8.03,6.22
102,2018-02-01T01:15:00,2018-02-01T01:30:00,366.9,13.1,8.02,6.22
103,2018-02-01T01:30:00,2018-02-01T01:45:00,367.4,12.72,8.02,6.22
104,2018-02-01T01:45:00,2018-02-01T02:00:00,367,12.46,8.02,6.22
105,2018-02-01T02:00:00,2018-02-01T02:15:00,368,12.91,8.03,6.22
106,2018-02-01T02:15:00,2018-02-01T02:30:00,368.5,12.96,8.03,6.22
107,2018-02-01T02:30:00,2018-02-01T02:45:00,368.6,12.95,8.03,6.22
108,2018-02-01T02:45:00,2018-02-01T03:00:00,369.1,12.95,8.03,6.22
109,2018-02-01T03:00:00,2018-02-01T03:15:00,368.7,12.95,8.03,6.21
110,2018-02-01T03:15:00,2018-02-01T03:30:00,369.1,12.97,8.03,6.21
111,2018-02-01T03:30:00,2018-02-01T03:45:00,368.8,12.96,8.03,6.21
112,2018-02-01T03:45:00,2018-02-01T04:00:00,367.7,12.98,8.03,6.21
113,2018-02-01T04:00:00,2018-02-01T04:15:00,366.2,12.98,8.03,6.2
114,2018-02-01T04:15:00,2018-02-01T04:30:00,365.6,12.97,8.03,6.2
115,2018-02-01T04:30:00,2018-02-01T04:45:00,364.9,12.99,8.03,6.2
116,2018-02-01T04:45:00,2018-02-01T05:00:00,364.1,13.01,8.03,6.2
117,2018-02-01T05:00:00,2018-02-01T05:15:00,363.8,13.01,8.03,6.2
118,2018-02-01T05:15:00,2018-02-01T05:30:00,363.3,13.05,8.03,6.2
119,2018-02-01T05:30:00,2018-02-01T05:45:00,364.7,12.78,8.03,6.2
120,2018-02-01T05:45:00,2018-02-01T06:00:00,364.6,12.39,8.03,6.2
121,2018-02-01T06:00:00,2018-02-01T06:15:00,365.3,12.3,8.03,6.21
122,2018-02-01T06:15:00,2018-02-01T06:30:00,365.7,12.28,8.03,6.21
123,2018-02-01T06:30:00,2018-02-01T06:45:00,366.1,12.27,8.03,6.21
124,2018-02-01T06:45:00,2018-02-01T07:00:00,366.7,12.26,8.03,6.21
125,2018-02-01T07:00:00,2018-02-01T07:15:00,367.3,12.25,8.03,6.22
126,2018-02-01T07:15:00,2018-02-01T07:30:00,367.9,12.25,8.03,6.22
127,2018-02-01T07:30:00,2018-02-01T07:45:00,369.1,12.24,8.03,6.22
128,2018-02-01T07:45:00,2018-02-01T08:00:00,370.4,12.23,8.03,6.22
129,2018-02-01T08:00:00,2018-02-01T08:15:00,370.5,12.23,8.03,6.23
130,2018-02-01T08:15:00,2018-02-01T08:30:00,358.6,12.22,8.04,6.26
131,2018-02-01T08:30:00,2018-02-01T08:45:00,372.1,12.22,8.04,6.23
132,2018-02-01T08:45:00,2018-02-01T09:00:00,372.5,12.2,8.03,6.23
133,2018-02-01T09:00:00,2018-02-01T09:15:00,373.5,12.2,8.03,6.23
134,2018-02-01T09:15:00,2018-02-01T09:30:00,373.8,12.19,8.03,6.23
135,2018-02-01T09:30:00,2018-02-01T09:45:00,374.3,12.19,8.04,6.23
136,2018-02-01T09:45:00,2018-02-01T10:00:00,374.2,12.18,8.04,6.23
137,2018-02-01T10:00:00,2018-02-01T10:15:00,374.5,12.18,8.04,6.22
138,2018-02-01T10:15:00,2018-02-01T10:30:00,373.9,12.18,8.04,6.22
139,2018-02-01T10:30:00,2018-02-01T10:45:00,373.8,12.19,8.03,6.22
140,2018-02-01T10:45:00,2018-02-01T11:00:00,373.9,12.2,8.04,6.21
141,2018-02-01T11:00:00,2018-02-01T11:15:00,374.4,12.21,8.03,6.22
142,2018-02-01T11:15:00,2018-02-01T11:30:00,375,12.23,8.03,6.22
143,2018-02-01T11:30:00,2018-02-01T11:45:00,375.5,12.24,8.03,6.22
144,2018-02-01T11:45:00,2018-02-01T12:00:00,374.2,12.25,8.04,6.21
145,2018-02-01T12:00:00,2018-02-01T12:15:00,373.7,12.25,8.04,6.21
146,2018-02-01T12:15:00,2018-02-01T12:30:00,373.3,12.25,8.04,6.22
147,2018-02-01T12:30:00,2018-02-01T12:45:00,372.4,12.25,8.03,6.22
148,2018-02-01T12:45:00,2018-02-01T13:00:00,372.2,12.25,8.03,6.22
149,2018-02-01T13:00:00,2018-02-01T13:15:00,371.6,12.24,8.03,6.23
150,2018-02-01T13:15:00,2018-02-01T13:30:00,371.5,12.25,8.03,6.22
151,2018-02-01T13:30:00,2018-02-01T13:45:00,370.9,12.25,8.03,6.22
152,2018-02-01T13:45:00,2018-02-01T14:00:00,370.5,12.24,8.03,6.22
153,2018-02-01T14:00:00,2018-02-01T14:15:00,371.5,12.25,8.04,6.22
154,2018-02-01T14:15:00,2018-02-01T14:30:00,371.7,12.25,8.04,6.22
155,2018-02-01T14:30:00,2018-02-01T14:45:00,373.1,12.27,8.04,6.22
156,2018-02-01T14:45:00,2018-02-01T15:00:00,374.3,12.28,8.04,6.22
157,2018-02-01T15:00:00,2018-02-01T15:15:00,375.6,12.27,8.04,6.23
158,2018-02-01T15:15:00,2018-02-01T15:30:00,378.9,12.27,8.05,6.23
159,2018-02-01T15:30:00,2018-02-01T15:45:00,380.1,12.28,8.05,6.23
160,2018-02-01T15:45:00,2018-02-01T16:00:00,381.8,12.28,8.05,6.23
161,2018-02-01T16:00:00,2018-02-01T16:15:00,385.3,12.28,8.05,6.23
162,2018-02-01T16:15:00,2018-02-01T16:30:00,386,12.29,8.05,6.24
163,2018-02-01T16:30:00,2018-02-01T16:45:00,386,12.29,8.05,6.25
164,2018-02-01T16:45:00,2018-02-01T17:00:00,385.2,12.3,8.06,6.25
165,2018-02-01T17:00:00,2018-02-01T17:15:00,384.2,12.3,8.06,6.25
166,2018-02-01T17:15:00,2018-02-01T17:30:00,384.3,12.32,8.06,6.25
167,2018-02-01T17:30:00,2018-02-01T17:45:00,384.3,12.34,8.06,6.25
168,2018-02-01T17:45:00,2018-02-01T18:00:00,383.7,12.34,8.06,6.25
169,2018-02-01T18:00:00,2018-02-01T18:15:00,383.8,12.37,8.06,6.25
170,2018-02-01T18:15:00,2018-02-01T18:30:00,383.5,12.39,8.06,6.25
171,2018-02-01T18:30:00,2018-02-01T18:45:00,382.6,12.41,8.06,6.25
172,2018-02-01T18:45:00,2018-02-01T19:00:00,382.6,12.44,8.06,6.25
173,2018-02-01T19:00:00,2018-02-01T19:15:00,382.5,12.46,8.06,6.25
174,2018-02-01T19:15:00,2018-02-01T19:30:00,382.1,12.47,8.06,6.25
175,2018-02-01T19:30:00,2018-02-01T19:45:00,381.7,12.49,8.06,6.25
176,2018-02-01T19:45:00,2018-02-01T20:00:00,381.8,12.51,8.06,6.24
177,2018-02-01T20:00:00,2018-02-01T20:15:00,381.7,12.52,8.06,6.24
178,2018-02-01T20:15:00,2018-02-01T20:30:00,382.5,12.53,8.06,6.24
179,2018-02-01T20:30:00,2018-02-01T20:45:00,382.5,12.54,8.06,6.24
180,2018-02-01T20:45:00,2018-02-01T21:00:00,381.6,12.54,8.06,6.24
181,2018-02-01T21:00:00,2018-02-01T21:15:00,382.4,12.56,8.06,6.24
182,2018-02-01T21:15:00,2018-02-01T21:30:00,382.5,12.58,8.06,6.24
183,2018-02-01T21:30:00,2018-02-01T21:45:00,384.3,12.58,8.06,6.24
184,2018-02-01T21:45:00,2018-02-01T22:00:00,383.8,12.59,8.06,6.24
185,2018-02-01T22:00:00,2018-02-01T22:15:00,383.4,12.6,8.06,6.24
186,2018-02-01T22:15:00,2018-02-01T22:30:00,382.8,12.6,8.06,6.24
187,2018-02-01T22:30:00,2018-02-01T22:45:00,382.7,12.6,8.06,6.24
188,2018-02-01T22:45:00,2018-02-01T23:00:00,382.7,12.6,8.06,6.23
189,2018-02-01T23:00:00,2018-02-01T23:15:00,381.7,12.59,8.06,6.23
190,2018-02-01T23:15:00,2018-02-01T23:30:00,381.2,12.59,8.06,6.22
191,2018-02-01T23:30:00,2018-02-01T23:45:00,379.9,12.58,8.06,6.22
192,2018-02-01T23:45:00,2018-03-01T00:00:00,379.1,12.59,8.06,6.21
193,2018-03-01T00:00:00,2018-03-01T00:15:00,377.8,12.59,8.06,6.2
194,2018-03-01T00:15:00,2018-03-01T00:30:00,375.8,12.6,8.05,6.19
195,2018-03-01T00:30:00,2018-03-01T00:45:00,374.2,12.59,8.05,6.19
196,2018-03-01T00:45:00,2018-03-01T01:00:00,373.1,12.59,8.05,6.18
197,2018-03-01T01:00:00,2018-03-01T01:15:00,372.1,12.6,8.05,6.17
198,2018-03-01T01:15:00,2018-03-01T01:30:00,371.3,12.6,8.05,6.17
199,2018-03-01T01:30:00,2018-03-01T01:45:00,370.9,12.61,8.05,6.17
200,2018-03-01T01:45:00,2018-03-01T02:00:00,370.5,12.62,8.05,6.17
201,2018-03-01T02:00:00,2018-03-01T02:15:00,370.5,12.64,8.05,6.16
202,2018-03-01T02:15:00,2018-03-01T02:30:00,370.4,12.64,8.05,6.16
203,2018-03-01T02:30:00,2018-03-01T02:45:00,371.8,12.64,8.05,6.17
204,2018-03-01T02:45:00,2018-03-01T03:00:00,373.9,12.64,8.05,6.17
205,2018-03-01T03:00:00,2018-03-01T03:15:00,375.2,12.62,8.05,6.17
206,2018-03-01T03:15:00,2018-03-01T03:30:00,374.2,12.63,8.05,6.18
207,2018-03-01T03:30:00,2018-03-01T03:45:00,372.5,12.63,8.05,6.18
208,2018-03-01T03:45:00,2018-03-01T04:00:00,371.5,12.63,8.06,6.18
209,2018-03-01T04:00:00,2018-03-01T04:15:00,371,12.64,8.05,6.19
210,2018-03-01T04:15:00,2018-03-01T04:30:00,371.1,12.63,8.06,6.19
211,2018-03-01T04:30:00,2018-03-01T04:45:00,371.3,12.63,8.06,6.2
212,2018-03-01T04:45:00,2018-03-01T05:00:00,372.4,12.64,8.06,6.21
213,2018-03-01T05:00:00,2018-03-01T05:15:00,372.8,12.63,8.06,6.22
214,2018-03-01T05:15:00,2018-03-01T05:30:00,373.8,12.64,8.06,6.22
215,2018-03-01T05:30:00,2018-03-01T05:45:00,374.3,12.63,8.06,6.23
216,2018-03-01T05:45:00,2018-03-01T06:00:00,374.7,12.63,8.06,6.24
217,2018-03-01T06:00:00,2018-03-01T06:15:00,374.9,12.65,8.06,6.25
218,2018-03-01T06:15:00,2018-03-01T06:30:00,374.9,12.65,8.06,6.26
219,2018-03-01T06:30:00,2018-03-01T06:45:00,374.3,12.66,8.06,6.26
220,2018-03-01T06:45:00,2018-03-01T07:00:00,374.3,12.68,8.06,6.27
221,2018-03-01T07:00:00,2018-03-01T07:15:00,374.4,12.67,8.06,6.27
222,2018-03-01T07:15:00,2018-03-01T07:30:00,374.6,12.67,8.06,6.27
223,2018-03-01T07:30:00,2018-03-01T07:45:00,375.1,12.67,8.06,6.29
224,2018-03-01T07:45:00,2018-03-01T08:00:00,375.7,12.65,8.06,6.3
225,2018-03-01T08:00:00,2018-03-01T08:15:00,375.8,12.62,8.06,6.31
226,2018-03-01T08:15:00,2018-03-01T08:30:00,378.5,12.61,8.06,6.32
227,2018-03-01T08:30:00,2018-03-01T08:45:00,380.4,12.61,8.06,6.32
228,2018-03-01T08:45:00,2018-03-01T09:00:00,379.9,12.6,8.05,6.32
229,2018-03-01T09:00:00,2018-03-01T09:15:00,378.1,12.61,8.05,6.33
230,2018-03-01T09:15:00,2018-03-01T09:30:00,376.9,12.88,8.05,6.34
231,2018-03-01T09:30:00,2018-03-01T09:45:00,375.6,12.8,8.05,6.35
232,2018-03-01T09:45:00,2018-03-01T10:00:00,374.6,12.63,8.05,6.35
233,2018-03-01T10:00:00,2018-03-01T10:15:00,374.4,12.75,8.05,6.36
234,2018-03-01T10:15:00,2018-03-01T10:30:00,374.3,13.06,8.05,6.38
235,2018-03-01T10:30:00,2018-03-01T10:45:00,374.5,13.09,8.05,6.39
236,2018-03-01T10:45:00,2018-03-01T11:00:00,375.8,13.1,8.05,6.4
237,2018-03-01T11:00:00,2018-03-01T11:15:00,375.1,13.1,8.05,6.41
238,2018-03-01T11:15:00,2018-03-01T11:30:00,375,13.08,8.05,6.42
239,2018-03-01T11:30:00,2018-03-01T11:45:00,376,13.08,8.05,6.43
240,2018-03-01T11:45:00,2018-03-01T12:00:00,376.6,13.07,8.05,6.43
241,2018-03-01T12:00:00,2018-03-01T12:15:00,376.5,13.01,8.05,6.43
242,2018-03-01T12:15:00,2018-03-01T12:30:00,378.2,12.68,8.05,6.42
243,2018-03-01T12:30:00,2018-03-01T12:45:00,377.5,12.86,8.05,6.42
244,2018-03-01T12:45:00,2018-03-01T13:00:00,377.6,12.93,8.05,6.42
245,2018-03-01T13:00:00,2018-03-01T13:15:00,377.7,12.91,8.05,6.41
246,2018-03-01T13:15:00,2018-03-01T13:30:00,379,12.9,8.05,6.41
247,2018-03-01T13:30:00,2018-03-01T13:45:00,382.7,12.6,8.04,6.43
248,2018-03-01T13:45:00,2018-03-01T14:00:00,382.3,12.61,8.05,6.42
249,2018-03-01T14:00:00,2018-03-01T14:15:00,380.3,12.46,8.05,6.41
250,2018-03-01T14:15:00,2018-03-01T14:30:00,377.5,12.4,8.05,6.41
251,2018-03-01T14:30:00,2018-03-01T14:45:00,376.8,12.41,8.05,6.41
252,2018-03-01T14:45:00,2018-03-01T15:00:00,377.5,12.4,8.05,6.41
253,2018-03-01T15:00:00,2018-03-01T15:15:00,380.8,12.4,8.05,6.41
254,2018-03-01T15:15:00,2018-03-01T15:30:00,382.6,12.4,8.05,6.41
255,2018-03-01T15:30:00,2018-03-01T15:45:00,382.6,12.4,8.05,6.42
256,2018-03-01T15:45:00,2018-03-01T16:00:00,383.3,12.48,8.05,6.42
257,2018-03-01T16:00:00,2018-03-01T16:15:00,383.4,12.52,8.06,6.42
258,2018-03-01T16:15:00,2018-03-01T16:30:00,382.8,12.52,8.06,6.42
259,2018-03-01T16:30:00,2018-03-01T16:45:00,382.3,12.51,8.06,6.42
260,2018-03-01T16:45:00,2018-03-01T17:00:00,380,12.5,8.06,6.42
261,2018-03-01T17:00:00,2018-03-01T17:15:00,382.8,12.53,8.06,6.41
262,2018-03-01T17:15:00,2018-03-01T17:30:00,382.5,12.56,8.06,6.41
263,2018-03-01T17:30:00,2018-03-01T17:45:00,382.3,12.56,8.06,6.41
264,2018-03-01T17:45:00,2018-03-01T18:00:00,382.1,12.56,8.06,6.42
265,2018-03-01T18:00:00,2018-03-01T18:15:00,380.3,12.58,8.06,6.42
266,2018-03-01T18:15:00,2018-03-01T18:30:00,382.3,12.59,8.06,6.42
267,2018-03-01T18:30:00,2018-03-01T18:45:00,385,12.62,8.06,6.41
268,2018-03-01T18:45:00,2018-03-01T19:00:00,387.4,12.63,8.07,6.4
269,2018-03-01T19:00:00,2018-03-01T19:15:00,386.4,12.65,8.06,6.4
270,2018-03-01T19:15:00,2018-03-01T19:30:00,384.3,12.68,8.06,6.4
271,2018-03-01T19:30:00,2018-03-01T19:45:00,383,12.72,8.07,6.4
272,2018-03-01T19:45:00,2018-03-01T20:00:00,382.3,12.78,8.06,6.4
273,2018-03-01T20:00:00,2018-03-01T20:15:00,381.9,12.79,8.07,6.4
274,2018-03-01T20:15:00,2018-03-01T20:30:00,382.5,12.75,8.07,6.39
275,2018-03-01T20:30:00,2018-03-01T20:45:00,383.3,12.75,8.07,6.38
276,2018-03-01T20:45:00,2018-03-01T21:00:00,383.2,12.83,8.07,6.38
277,2018-03-01T21:00:00,2018-03-01T21:15:00,382,12.92,8.07,6.38
278,2018-03-01T21:15:00,2018-03-01T21:30:00,380.6,12.96,8.07,6.38
279,2018-03-01T21:30:00,2018-03-01T21:45:00,377.5,12.94,8.06,6.37
280,2018-03-01T21:45:00,2018-03-01T22:00:00,376,12.9,8.06,6.36
281,2018-03-01T22:00:00,2018-03-01T22:15:00,373.5,12.93,8.06,6.36
282,2018-03-01T22:15:00,2018-03-01T22:30:00,371.9,13,8.06,6.36
283,2018-03-01T22:30:00,2018-03-01T22:45:00,370.5,13.02,8.06,6.36
284,2018-03-01T22:45:00,2018-03-01T23:00:00,368.9,13.04,8.06,6.36
285,2018-03-01T23:00:00,2018-03-01T23:15:00,367.6,12.99,8.06,6.36
286,2018-03-01T23:15:00,2018-03-01T23:30:00,367.2,12.95,8.06,6.36
287,2018-03-01T23:30:00,2018-03-01T23:45:00,365.6,12.93,8.06,6.36
288,2018-03-01T23:45:00,2018-04-01T00:00:00,365.8,13.01,8.06,6.36
289,2018-04-01T00:00:00,2018-04-01T00:15:00,367.2,13.09,8.06,6.36
290,2018-04-01T00:15:00,2018-04-01T00:30:00,368.5,13.06,8.06,6.36
291,2018-04-01T00:30:00,2018-04-01T00:45:00,366.6,13.02,8.06,6.36
292,2018-04-01T00:45:00,2018-04-01T01:00:00,364,13,8.06,6.36
293,2018-04-01T01:00:00,2018-04-01T01:15:00,361.6,13.02,8.06,6.35
294,2018-04-01T01:15:00,2018-04-01T01:30:00,360.2,13.19,8.06,6.35
295,2018-04-01T01:30:00,2018-04-01T01:45:00,358.7,13.35,8.05,6.35
296,2018-04-01T01:45:00,2018-04-01T02:00:00,358.6,13.36,8.05,6.35
297,2018-04-01T02:00:00,2018-04-01T02:15:00,358,13.34,8.06,6.35
298,2018-04-01T02:15:00,2018-04-01T02:30:00,357.9,13.29,8.06,6.35
299,2018-04-01T02:30:00,2018-04-01T02:45:00,357.3,13.31,8.06,6.35
300,2018-04-01T02:45:00,2018-04-01T03:00:00,357.8,13.36,8.06,6.35
301,2018-04-01T03:00:00,2018-04-01T03:15:00,358.4,13.36,8.06,6.35
302,2018-04-01T03:15:00,2018-04-01T03:30:00,359.9,13.31,8.06,6.35
303,2018-04-01T03:30:00,2018-04-01T03:45:00,361.7,13.25,8.06,6.35
304,2018-04-01T03:45:00,2018-04-01T04:00:00,361.9,13.29,8.06,6.35
305,2018-04-01T04:00:00,2018-04-01T04:15:00,361.7,13.39,8.06,6.35
306,2018-04-01T04:15:00,2018-04-01T04:30:00,361.4,13.29,8.06,6.35
307,2018-04-01T04:30:00,2018-04-01T04:45:00,360.6,13.27,8.06,6.35
308,2018-04-01T04:45:00,2018-04-01T05:00:00,359.5,13.27,8.05,6.34
309,2018-04-01T05:00:00,2018-04-01T05:15:00,359.7,13.26,8.05,6.33
310,2018-04-01T05:15:00,2018-04-01T05:30:00,360.2,13.27,8.05,6.33
311,2018-04-01T05:30:00,2018-04-01T05:45:00,362.7,13.3,8.05,6.33
312,2018-04-01T05:45:00,2018-04-01T06:00:00,363.4,13.29,8.05,6.33
313,2018-04-01T06:00:00,2018-04-01T06:15:00,362.4,13.29,8.05,6.34
314,2018-04-01T06:15:00,2018-04-01T06:30:00,361.8,13.28,8.05,6.34
315,2018-04-01T06:30:00,2018-04-01T06:45:00,362.4,13.25,8.05,6.35
316,2018-04-01T06:45:00,2018-04-01T07:00:00,363.1,13.18,8.05,6.35
317,2018-04-01T07:00:00,2018-04-01T07:15:00,364,13.13,8.05,6.36
318,2018-04-01T07:15:00,2018-04-01T07:30:00,365,13.15,8.05,6.36
319,2018-04-01T07:30:00,2018-04-01T07:45:00,365.3,13.2,8.05,6.36
320,2018-04-01T07:45:00,2018-04-01T08:00:00,366.5,13.24,8.05,6.38
321,2018-04-01T08:00:00,2018-04-01T08:15:00,366.4,13.21,8.05,6.38
322,2018-04-01T08:15:00,2018-04-01T08:30:00,366.5,13.15,8.04,6.38
323,2018-04-01T08:30:00,2018-04-01T08:45:00,367.6,13.29,8.04,6.38
324,2018-04-01T08:45:00,2018-04-01T09:00:00,367.7,13.59,8.04,6.38
325,2018-04-01T09:00:00,2018-04-01T09:15:00,368.7,13.63,8.05,6.38
326,2018-04-01T09:15:00,2018-04-01T09:30:00,370.1,13.39,8.05,6.38
327,2018-04-01T09:30:00,2018-04-01T09:45:00,370.7,13.3,8.05,6.38
328,2018-04-01T09:45:00,2018-04-01T10:00:00,371.8,13.3,8.05,6.38
329,2018-04-01T10:00:00,2018-04-01T10:15:00,372.8,13.29,8.05,6.39
330,2018-04-01T10:15:00,2018-04-01T10:30:00,372.2,13.34,8.05,6.39
331,2018-04-01T10:30:00,2018-04-01T10:45:00,373.6,13.35,8.05,6.39
332,2018-04-01T10:45:00,2018-04-01T11:00:00,375.9,13.38,8.05,6.39
333,2018-04-01T11:00:00,2018-04-01T11:15:00,378.9,13.41,8.06,6.4
334,2018-04-01T11:15:00,2018-04-01T11:30:00,379.5,13.46,8.06,6.4
335,2018-04-01T11:30:00,2018-04-01T11:45:00,378.1,13.48,8.06,6.4
336,2018-04-01T11:45:00,2018-04-01T12:00:00,377.2,13.47,8.06,6.41
337,2018-04-01T12:00:00,2018-04-01T12:15:00,376.8,13.46,8.06,6.41
338,2018-04-01T12:15:00,2018-04-01T12:30:00,377.1,13.44,8.06,6.41
339,2018-04-01T12:30:00,2018-04-01T12:45:00,377.4,13.4,8.06,6.44
340,2018-04-01T12:45:00,2018-04-01T13:00:00,376.9,13.41,8.06,6.45
341,2018-04-01T13:00:00,2018-04-01T13:15:00,377.4,13.38,8.06,6.46
342,2018-04-01T13:15:00,2018-04-01T13:30:00,377.8,13.42,8.06,6.46
343,2018-04-01T13:30:00,2018-04-01T13:45:00,378.4,13.47,8.06,6.47
344,2018-04-01T13:45:00,2018-04-01T14:00:00,378.4,13.51,8.06,6.48
345,2018-04-01T14:00:00,2018-04-01T14:15:00,378.6,13.5,8.06,6.48
346,2018-04-01T14:15:00,2018-04-01T14:30:00,378.5,13.5,8.06,6.49
347,2018-04-01T14:30:00,2018-04-01T14:45:00,377.9,13.51,8.06,6.5
348,2018-04-01T14:45:00,2018-04-01T15:00:00,378.3,13.5,8.06,6.51
349,2018-04-01T15:00:00,2018-04-01T15:15:00,377.9,13.48,8.06,6.51
350,2018-04-01T15:15:00,2018-04-01T15:30:00,378.2,13.49,8.06,6.53
351,2018-04-01T15:30:00,2018-04-01T15:45:00,377.5,13.52,8.06,6.53
352,2018-04-01T15:45:00,2018-04-01T16:00:00,376.6,13.55,8.06,6.54
353,2018-04-01T16:00:00,2018-04-01T16:15:00,376,13.55,8.06,6.54
354,2018-04-01T16:15:00,2018-04-01T16:30:00,376.7,13.54,8.06,6.54
355,2018-04-01T16:30:00,2018-04-01T16:45:00,376.2,13.55,8.06,6.54
356,2018-04-01T16:45:00,2018-04-01T17:00:00,373.9,13.52,8.06,6.55
357,2018-04-01T17:00:00,2018-04-01T17:15:00,374.3,13.51,8.06,6.55
358,2018-04-01T17:15:00,2018-04-01T17:30:00,373.4,13.54,8.06,6.56
359,2018-04-01T17:30:00,2018-04-01T17:45:00,373.5,13.55,8.06,6.56
360,2018-04-01T17:45:00,2018-04-01T18:00:00,372.7,13.58,8.06,6.57
361,2018-04-01T18:00:00,2018-04-01T18:15:00,372.8,13.63,8.06,6.58
362,2018-04-01T18:15:00,2018-04-01T18:30:00,372.4,13.66,8.06,6.6
363,2018-04-01T18:30:00,2018-04-01T18:45:00,371.7,13.71,8.06,6.61
364,2018-04-01T18:45:00,2018-04-01T19:00:00,371,13.75,8.06,6.61
365,2018-04-01T19:00:00,2018-04-01T19:15:00,371.2,13.77,8.06,6.61
366,2018-04-01T19:15:00,2018-04-01T19:30:00,369.7,13.75,8.06,6.61